Regional Weather Roundup
Issued by NWS State College, PA

Home | Current Version | Previous Version | Text Only | Print | Product List | Glossary Off
Versions: 1 2 3 4 5 6 7 8 9 10 11 12 13 14 15 16 17 18 19 20 21 22 23 24 25 26 27 28 29 30 31 32 33 34 35 36 37 38 39 40 41 42 43 44 45 46 47 48 49 50

000
ASUS41 KCTP 291603
RWRCTP

REGIONAL WEATHER ROUNDUP
NATIONAL WEATHER SERVICE STATE COLLEGE PA
1200 PM EDT FRI JUL 29 2016

Note: "fair" indicates few or no clouds below 12,000 feet with no
significant weather and/or obstructions to visibility.

* = STATION THAT DOES NOT REPORT PRECIPITATION /E.G. RAIN...SNOW...ETC/
    THUNDER OR FOG.

PAZ002>004-007>009-013>016-020>023-029>032-291700-
WESTERN PENNSYLVANIA

CITY           SKY/WX    TMP DP  RH WIND       PRES   REMARKS
ERIE           SUNNY     79  69  71 N9        29.95S
MEADVILLE      SUNNY     75  65  70 CALM      29.98S
FRANKLIN*      MOSUNNY   77  66  69 CALM      29.99F
NEW CASTLE     FAIR      77  67  71 CALM      29.99S
BEAVER COUNTY  CLOUDY    73  68  83 CALM      29.99S
BUTLER*        MOSUNNY   79  68  69 S5        30.00F
PITTSBURGH INT PTSUNNY   74  65  73 CALM      29.98S
PITTSBURGH     PTSUNNY   74  65  73 CALM      29.98S
INDIANA*       PTSUNNY   75  70  83 VRB5      30.02R
LATROBE        PTSUNNY   77  68  73 CALM      29.99R
WASHINGTON CO* CLOUDY    73  66  78 CALM      30.00R
$$

PAZ004>006-010>012-017>019-024>028-033>037-041-042-045-046-049>053-291700-
CENTRAL PENNSYLVANIA

CITY           SKY/WX    TMP DP  RH WIND       PRES   REMARKS
BRADFORD       MOSUNNY   79  60  52 VRB5      30.00S
DUBOIS         PTSUNNY   74  65  73 S3        29.99S
CLEARFIELD     MOSUNNY   78  66  66 SW7       29.98R
JOHNSTOWN      PTSUNNY   71  62  73 NW8       30.02R
ALTOONA        MOSUNNY   80  68  66 VRB3      29.96F
STATE COLLEGE  MOSUNNY   79  68  69 CALM      29.94F
WILLIAMSPORT   MOSUNNY   87  58  37 CALM      29.87F
SELINSGROVE    MOSUNNY   82  71  69 SE5       29.89F
FT INDIANTOWN  MOSUNNY   81  69  65 N8        29.88F
CAPITAL CITY   MOSUNNY   85  69  58 VRB3      29.88S
HARRISBURG     PTSUNNY   83  71  67 N8        29.87S
YORK           MOSUNNY   84  70  62 N10       29.89S
$$

PAZ038>040-043-044-047-048-054-055-060>062-067>071-291700-
EASTERN PENNSYLVANIA

CITY           SKY/WX    TMP DP  RH WIND       PRES   REMARKS
SCRANTON       PTSUNNY   81  68  64 NE8       29.90F
MOUNT POCONO   PTSUNNY   74  65  73 N7        29.95S
ALLENTOWN      MOSUNNY   82  70  66 VRB6      29.88S
QUAKERTOWN*    PTSUNNY   79  68  69 N10       29.89S
READING        PTSUNNY   82  67  60 N9        29.86F
LANCASTER      MOSUNNY   81  69  67 N8        29.88S
COATESVILLE    MOSUNNY   79  70  73 VRB7      29.90S
POTTSTOWN      PTSUNNY   81  70  69 VRB7      29.88F
BLUE BELL      MOSUNNY   79  70  73 NW5       29.85F
DOYLESTOWN     PTSUNNY   80  70  71 N8        29.86F
WILLOW GROVE   NOT AVBL
NORTH PHILA    MOSUNNY   82  70  66 N10G21    29.86S
PHILADELPHIA   MOSUNNY   82  68  62 N16       29.85S
$$




USA.gov is the U.S. government's official web portal to all federal, state and local government web resources and services.